Vertical_Velocity
1 -1 1 1 1 0 -3 3 2 -2 -0 -1 -0 0 0 1 -0 -1 -0 0 -1 1 1 -2 2 -1 -1 1 -0 -0 0 0 -3 -3 -0 -1 0 -0 -0 -1 -0 3 1
-3 0 -2 -1 1 0 -1 1 -1 -1 0 1 1 -1 -1 -0 -0 -1 -0 -0 0 1 0 1 -1 -1 0 1 -0 -2 0 1 -0 -1 0 -2 -3 -2 -3 -3 -2 -3 -2
1 -1 -1 -3 -4 -1 -0 3 -1 -1 2 1 -1 1 1 -0 -0 -1 -0 1 1 1 0 0 -0 -0 0 0 -1 -1 0 0 -1 -2 -1 -2 -1 -2 -1 -2 -2 -3 -2
1 -2 -1 0 1 2 1 1 -1 1 1 1 2 2 0 -0 0 1 1 1 1 0 1 1 1 -0 -1 -1 -0 -1 0 -0 -1 -2 -0 0 -1 -2 -2 -3 -1 -2 -3
-0 2 -4 -3 -2 0 -0 -1 -3 -0 -2 -1 -1 -2 -3 -2 -0 1 2 2 1 1 0 0 -1 -1 -1 -1 -0 0 1 -1 -1 -1 -0 -0 -1 -1 -1 -1 -1 -2 -1
-0 -2 -2 -1 -1 1 -1 -1 -3 -3 -4 -4 -2 -2 -3 -1 1 2 2 2 0 1 1 0 0 1 -0 -1 -1 -2 0 -3 -1 -2 -2 -2 -1 -1 -1 -0 -0 -1 -1
-2 -1 -1 -3 -0 1 -1 -2 -1 -2 -0 -2 -4 -0 0 1 2 2 1 1 1 0 -0 -1 -2 -1 -2 -1 0 -0 0 -0 1 0 -1 0 -1 -1 0 -2 -0 -2 -3
3 -2 -1 0 -0 -1 -1 -1 -2 -3 -3 -3 -3 -2 -5 -4 1 2 -2 1 -0 -0 -2 -1 -3 -2 -2 -2 -1 -1 -2 -0 0 -1 -0 -2 -2 -3 -3 -4 -3 -1 -2
1 -1 1 -1 -1 -0 -1 -2 -2 -2 -4 -3 -4 -3 -2 -3 -9 -8 -9 -3 -3 -4 -0 -2 -2 -3 -3 -3 -3 -2 -0 -1 -2 -2 -2 -1 -1 -0 1 0 -0 -1 1
0 0 0 -0 0 -2 -2 -2 -2 -2 -2 -3 -3 -1 2 2 -2 -8 -4 -5 -1 -2 -3 -6 -4 -5 -3 -2 -1 -2 -3 -3 -2 -1 -1 -1 0 -1 -3 -3 0 -3 -3
1 1 0 0 -3 -2 -2 -2 -1 -1 -3 -2 -1 -3 -4 -4 -0 1 -10 -14 -2 -4 -0 -1 -1 -0 -2 1 0 -1 -3 -2 -3 -7 -5 -4 -2 -2 1 -3 -0 -1 -8
-0 -0 0 -3 -2 -2 -1 -2 -3 -3 -2 -1 -0 -1 -0 1 -1 3 -0 -2 -3 -13 -12 -9 -6 -1 -1 -1 -1 1 2 1 -0 0 1 -2 -2 -2 -2 -1 -0 0 1
-0 -0 -2 -2 -2 -2 -3 -2 -2 -3 -1 -1 -1 0 0 1 -1 -0 2 0 -4 -6 -6 -6 -8 -10 -13 -16 -10 -5 -3 -2 -2 -2 -2 -1 -0 -1 -2 -2 1 -0 2
-2 -1 -2 -1 -2 -3 -2 -2 -1 -1 -1 -1 -0 -1 0 1 -0 1 1 1 -15 -4 2 -4 -1 -2 -2 -4 -6 -4 -12 -14 -12 -9 -5 -4 -1 -2 -0 -2 1 -2 5
-1 -2 -1 -1 -2 -1 -2 -2 -2 -2 -0 1 2 0 -1 0 -1 -0 0 2 6 -7 -7 -9 2 2 -2 -2 -4 -0 -2 -1 0 -4 -7 -4 -2 1 2 7 -1 -3 -3
-1 -2 -1 -2 -2 -2 -2 -2 0 1 1 1 -0 -2 0 1 -0 2 1 -1 1 3 -3 19 3 2 2 1 -4 -1 -2 -5 -8 -3 -2 -4 1 0 1 3 -1 -5 2
-2 -1 -1 -2 -1 -0 0 1 0 -0 -1 -1 2 -0 -1 3 0 -1 -0 -0 0 2 -1 -28 2 -6 -1 3 1 3 2 -2 -9 -7 -7 -4 -4 -1 -4 -6 -1 -1 -2
-1 -1 -1 -1 -1 0 1 -1 -1 -0 -2 -2 -2 -1 -1 -0 -2 -0 1 1 -1 4 5 -11 -9 -8 3 -9 2 -1 -1 0 -7 -7 2 -5 -2 4 -3 -4 -7 -8 -5
-1 -1 -2 -1 0 -0 0 0 -2 -3 -2 -1 -0 1 -0 -0 -2 -1 -0 -1 -0 1 5 3 -23 -5 -11 1 -0 -2 -4 -3 -3 1 -9 -9 -3 -3 -1 -2 -3 2 0
-1 -1 -1 -0 -1 -0 -1 -2 -2 -2 0 1 1 -1 -2 -1 -0 -0 1 5 3 -2 -3 2 -5 1 10 -5 2 -1 -11 -0 -4 -1 -17 17 -6 -8 -8 -8 -10 -8 -3
-1 -1 -0 0 -2 -3 -3 -4 -1 -1 -0 -2 -3 -2 -1 1 3 3 6 0 1 -4 -0 13 11 -4 -7 -10 -1 -6 -4 -5 4 -6 -17 3 -14 -6 -10 -7 -2 0 0
-0 0 -1 -3 -2 -2 -1 1 1 -1 -3 -1 -3 -1 -1 -2 -3 -2 -5 -1 5 14 8 1 -3 0 -8 -1 -4 2 7 -2 -29 15 -1 -23 8 -4 -3 -1 0 -1 -2
0 -2 -4 -3 0 -0 -2 -2 -0 -2 -1 -2 -0 0 -0 -0 0 -5 -5 -5 1 3 2 8 2 1 -6 2 12 -2 2 5 -2 -10 1 -12 1 -7 -1 -6 2 -0 -2
-3 -2 0 -0 -3 1 -0 -1 -1 -0 0 1 1 -0 -2 -3 -1 0 3 11 -2 -3 -4 -4 2 -2 11 5 10 9 -1 -2 -3 -6 11 -9 2 -9 -6 -2 -0 -1 -1
-0 1 -3 -2 -1 -0 -1 -1 -2 0 1 -3 -2 -2 -5 -4 -7 7 11 1 -2 -6 -1 1 -1 -4 -1 2 6 3 -4 4 -13 -12 -0 8 -5 -9 0 -14 -7 -5 -3
-1 -4 -0 0 2 -1 -1 -3 -0 -2 -1 1 -1 -0 -2 -3 0 3 8 2 -7 -6 -5 1 -5 -3 2 -3 1 8 2 2 5 -17 5 12 -2 11 -10 -7 -4 0 -5
Height
1512 1512 1512 1512 1512 1514 1513 1513 1511 1511 1511 1509 1507 1505 1503 1501 1500 1499 1497 1496 1494 1494 1493 1492 1491 1489 1488 1487 1485 1484 1483 1482 1481 1480 1480 1479 1479 1479 1478 1477 1478 1478 1478
1510 1510 1511 1511 1511 1512 1512 1511 1509 1509 1508 1506 1503 1501 1499 1498 1496 1495 1493 1492 1490 1489 1488 1487 1486 1485 1484 1483 1481 1480 1479 1477 1476 1476 1475 1473 1473 1473 1472 1472 1472 1472 1472
1508 1508 1509 1510 1511 1510 1510 1508 1506 1506 1504 1502 1500 1498 1496 1494 1492 1491 1489 1487 1486 1485 1484 1483 1482 1481 1480 1479 1477 1476 1475 1473 1471 1470 1469 1468 1467 1466 1466 1466 1466 1465 1465
1506 1506 1507 1508 1508 1508 1507 1504 1504 1503 1500 1498 1495 1494 1491 1490 1488 1486 1485 1484 1483 1482 1481 1480 1479 1478 1476 1474 1472 1471 1469 1467 1465 1464 1463 1461 1460 1459 1459 1458 1458 1457 1457
1503 1505 1505 1506 1506 1506 1504 1501 1501 1499 1496 1494 1491 1489 1487 1486 1484 1483 1482 1481 1480 1479 1478 1477 1475 1473 1471 1469 1467 1465 1463 1460 1458 1456 1454 1453 1451 1450 1449 1449 1448 1448 1448
1502 1503 1503 1503 1504 1503 1501 1499 1498 1495 1492 1489 1487 1485 1482 1481 1480 1480 1480 1479 1478 1476 1474 1473 1471 1468 1466 1463 1461 1459 1456 1453 1451 1449 1447 1445 1443 1443 1441 1440 1439 1439 1438
1499 1500 1501 1502 1502 1501 1498 1496 1494 1491 1489 1486 1483 1482 1480 1478 1478 1477 1476 1476 1474 1473 1471 1469 1466 1463 1460 1457 1455 1452 1449 1446 1443 1441 1439 1438 1436 1434 1433 1432 1431 1429 1429
1497 1498 1499 1499 1499 1497 1495 1492 1490 1489 1487 1485 1482 1478 1476 1476 1474 1474 1474 1473 1470 1469 1466 1463 1460 1457 1454 1451 1448 1444 1441 1438 1435 1432 1432 1430 1428 1426 1425 1424 1423 1421 1420
1495 1496 1497 1496 1496 1494 1492 1490 1488 1487 1486 1485 1483 1483 1479 1476 1470 1466 1467 1465 1464 1461 1459 1455 1452 1449 1447 1443 1440 1436 1433 1430 1427 1425 1423 1421 1419 1418 1417 1415 1413 1412 1411
1493 1494 1494 1494 1493 1491 1490 1488 1486 1485 1484 1483 1483 1482 1480 1477 1472 1460 1458 1457 1454 1452 1449 1446 1444 1441 1439 1436 1432 1429 1425 1422 1419 1417 1414 1412 1410 1409 1407 1405 1403 1402 1401
1491 1492 1492 1491 1490 1489 1488 1486 1485 1484 1482 1482 1480 1477 1476 1473 1471 1465 1452 1447 1445 1444 1441 1438 1436 1434 1431 1427 1423 1420 1416 1414 1411 1408 1405 1403 1401 1398 1396 1394 1393 1390 1388
1489 1490 1489 1488 1488 1486 1486 1484 1483 1482 1481 1479 1477 1474 1472 1469 1465 1463 1454 1445 1438 1432 1432 1431 1430 1427 1424 1420 1416 1412 1408 1405 1401 1399 1396 1394 1391 1388 1385 1383 1380 1378 1376
1487 1487 1486 1486 1485 1484 1484 1482 1481 1479 1478 1476 1473 1471 1468 1465 1463 1460 1454 1444 1433 1424 1422 1420 1419 1417 1415 1413 1408 1404 1399 1396 1392 1388 1385 1382 1379 1376 1373 1370 1367 1364 1362
1484 1484 1485 1484 1483 1482 1481 1480 1478 1477 1475 1472 1469 1467 1464 1462 1459 1456 1451 1444 1428 1422 1417 1413 1410 1408 1407 1403 1398 1396 1391 1387 1383 1378 1375 1371 1368 1365 1361 1358 1355 1352 1349
1482 1482 1483 1481 1480 1479 1478 1477 1475 1473 1471 1468 1465 1462 1459 1456 1454 1451 1447 1444 1438 1419 1402 1405 1404 1402 1397 1393 1391 1387 1382 1378 1375 1370 1366 1361 1356 1353 1349 1345 1341 1338 1336
1480 1480 1479 1478 1478 1476 1475 1473 1471 1469 1466 1464 1460 1457 1454 1451 1448 1445 1441 1438 1435 1428 1409 1402 1395 1392 1389 1385 1381 1378 1373 1369 1364 1359 1355 1351 1346 1342 1337 1333 1329 1325 1322
1477 1477 1476 1476 1475 1474 1472 1469 1467 1465 1462 1459 1455 1451 1448 1445 1441 1438 1435 1431 1427 1422 1410 1388 1390 1384 1378 1374 1371 1367 1363 1358 1353 1349 1344 1340 1335 1330 1325 1320 1315 1311 1308
1475 1474 1473 1473 1472 1470 1468 1465 1463 1460 1456 1453 1449 1445 1442 1438 1435 1431 1427 1423 1418 1413 1406 1392 1382 1376 1373 1367 1361 1357 1353 1349 1342 1336 1332 1327 1322 1317 1312 1307 1303 1298 1295
1472 1471 1471 1470 1468 1467 1464 1461 1458 1455 1452 1448 1444 1439 1435 1431 1427 1423 1419 1414 1409 1404 1399 1391 1378 1373 1364 1360 1353 1349 1343 1337 1331 1326 1321 1313 1310 1305 1300 1294 1290 1286 1282
1469 1469 1468 1466 1465 1463 1460 1457 1454 1450 1446 1442 1438 1434 1430 1426 1421 1416 1412 1409 1404 1397 1390 1382 1374 1366 1361 1354 1348 1339 1330 1327 1319 1316 1308 1301 1298 1293 1287 1282 1277 1272 1268
1467 1466 1465 1464 1462 1459 1456 1452 1448 1444 1440 1436 1433 1429 1424 1420 1416 1412 1408 1402 1397 1390 1382 1373 1368 1361 1354 1346 1340 1332 1324 1315 1308 1308 1296 1288 1285 1278 1271 1267 1262 1257 1253
1464 1463 1462 1461 1458 1455 1452 1448 1443 1439 1435 1431 1426 1422 1418 1414 1409 1405 1400 1396 1392 1384 1377 1370 1362 1354 1347 1341 1333 1326 1319 1311 1295 1298 1289 1277 1276 1265 1259 1254 1249 1245 1242
1462 1461 1459 1457 1454 1450 1446 1442 1438 1434 1430 1426 1421 1417 1412 1408 1403 1397 1391 1386 1382 1378 1373 1366 1356 1349 1341 1335 1328 1320 1312 1305 1296 1287 1284 1266 1265 1253 1248 1242 1237 1233 1229
1460 1458 1455 1452 1449 1445 1441 1437 1433 1429 1424 1421 1417 1412 1406 1400 1396 1391 1384 1378 1373 1367 1362 1357 1351 1343 1337 1331 1324 1316 1307 1297 1287 1280 1276 1261 1255 1243 1237 1230 1225 1220 1216
1457 1455 1451 1448 1444 1441 1437 1432 1427 1423 1419 1415 1411 1406 1402 1397 1392 1386 1379 1370 1363 1357 1354 1349 1343 1338 1330 1323 1317 1309 1299 1291 1278 1270 1266 1257 1245 1235 1227 1216 1211 1208 1204
1453 1451 1448 1444 1440 1436 1432 1427 1423 1418 1414 1409 1405 1401 1397 1393 1386 1381 1373 1365 1357 1351 1345 1338 1333 1327 1321 1314 1309 1304 1295 1286 1277 1264 1258 1253 1241 1235 1216 1207 1204 1197 1191